パンスターズ彗星

P/2022 S1 ( PanSTARRS )

English version
Home page
Updated on December 28, 2022

---------------------------------------------------------------------

・ プロフィール

発見日 2022年9月23日
発見光度 20.5等
発見者 Pan-STARRS 2 telescope (Haleakala)

・ 軌道要素

Epoch 2023 Feb. 25.0 TT = JDT 2460000.5
T 2022 Aug. 19.08215 TT                                 Rudenko
q   3.1514339            (2000.0)            P               Q
n   0.06074745     Peri.  262.73923     +0.65744513     -0.64251769
a   6.4089077      Node   136.09222     +0.68339856     +0.72848668
e   0.5082728      Incl.   34.58202     -0.31738353     +0.23765137
P  16.2
>From 69 observations 2022 Sept. 14-Dec. 14, mean residual 0".4.

・ 光度変化

        m1 = 13.0 + 5 logΔ + 10.0 log r

---------------------------------------------------------------------

軌道要素はM.P.E.C. 2022-Y15に掲載されたものです。
光度グラフはComet for Windowsで作成したものです。

---------------------------------------------------------------------

Copyright(C) Seiichi Yoshida (comet@aerith.net). All rights reserved.